This is the latest recevied weather packets stored in our database for station/object K6MBY. If no packets are shown the sender has not sent any weather packets the latest 10 day(s).
| Time | Temp. | Humidity | Pressure | Rain* | Wind** | Luminosity | Snow |
|---|---|---|---|---|---|---|---|
| 1777863715 | 23.89° C | 30% | 1013 hPa | 0 mm | - | 21 W/m² | - |
| 1777863411 | 23.89° C | 31% | 1012.9 hPa | 0 mm | - | 24 W/m² | - |
| 1777863108 | 23.89° C | 29% | 1013.1 hPa | 0 mm | - | 28 W/m² | - |
| 1777862806 | 23.89° C | 30% | 1013 hPa | 0 mm | - | 31 W/m² | - |
| 1777862502 | 24.44° C | 33% | 1013 hPa | 0 mm | - | 34 W/m² | - |
| 1777862199 | 24.44° C | 32% | 1013 hPa | 0 mm | - | 37 W/m² | - |
| 1777861895 | 24.44° C | 31% | 1013.1 hPa | 0 mm | - | 39 W/m² | - |
| 1777861591 | 25° C | 29% | 1013.2 hPa | 0 mm | - | 50 W/m² | - |
| 1777861287 | 25° C | 31% | 1013.3 hPa | 0 mm | - | 49 W/m² | - |
| 1777860986 | 25° C | 29% | 1013.2 hPa | 0 mm | - | 59 W/m² | - |
| 1777860681 | 25° C | 30% | 1013.4 hPa | 0 mm | - | 74 W/m² | - |
| 1777860379 | 25° C | 31% | 1013.4 hPa | 0 mm | - | 83 W/m² | - |
| 1777860075 | 25.56° C | 31% | 1013.5 hPa | 0 mm | - | 88 W/m² | - |
| 1777859771 | 25.56° C | 31% | 1013.4 hPa | 0 mm | - | 103 W/m² | - |
| 1777859468 | 26.11° C | 29% | 1013.5 hPa | 0 mm | - | 114 W/m² | - |
| 1777859164 | 26.11° C | 30% | 1013.7 hPa | 0 mm | - | 116 W/m² | - |
| 1777858861 | 25.56° C | 29% | 1013.7 hPa | 0 mm | - | 137 W/m² | - |
| 1777858558 | 25.56° C | 30% | 1013.5 hPa | 0 mm | - | 150 W/m² | - |
| 1777858255 | 25.56° C | 31% | 1013.7 hPa | 0 mm | - | 164 W/m² | - |
| 1777857953 | 25° C | 28% | 1013.8 hPa | 0 mm | - | 178 W/m² | - |
| 1777857650 | 25.56° C | 29% | 1013.7 hPa | 0 mm | - | 192 W/m² | - |
| 1777857347 | 26.11° C | 30% | 1013.7 hPa | 0 mm | - | 206 W/m² | - |
| 1777857043 | 25.56° C | 30% | 1013.9 hPa | 0 mm | - | 220 W/m² | - |
| 1777856739 | 25.56° C | 32% | 1013.9 hPa | 0 mm | - | 237 W/m² | - |
| 1777856435 | 25° C | 33% | 1013.9 hPa | 0 mm | - | 252 W/m² | - |
* Rain latest hour (hover to see other rain measurements)
** Current wind speed in m/s (hover to see current wind gust speed)